Printer-friendly version

IAU Minor Planet Center

Minor Planet Center

MPEC 2004-M35 : 2004 MW2

The following Minor Planet Electronic Circular may be linked-to from your own Web pages, but must not otherwise be redistributed electronically.


Read MPEC 2004-M34 Read MPEC 2004-M36


M.P.E.C. 2004-M35                                Issued 2004 June 21, 19:12 UT

     The Minor Planet Electronic Circulars contain information on unusual
         minor planets and routine data on comets.  They are published
   on behalf of Commission 20 of the International Astronomical Union by the
          Minor Planet Center, Smithsonian Astrophysical Observatory,
                          Cambridge, MA 02138, U.S.A.

         Supported in part by the Steven and Michele Kirsch Foundation
             Prepared using the Tamkin Foundation Computer Network

                              MPC@CFA.HARVARD.EDU
          URL http://cfa-www.harvard.edu/iau/mpc.html  ISSN 1523-6714

                                   2004 MW2

Observations:
     K04M02W* C2004 06 20.34208 20 56 04.74 -00 48 23.4          17.2   EM035704
     K04M02W  C2004 06 20.35209 20 55 54.98 -00 51 20.4          17.4   EM035704
     K04M02W  C2004 06 20.36202 20 55 45.28 -00 54 15.1          17.4   EM035704
     K04M02W  C2004 06 20.37194 20 55 35.59 -00 57 10.0          17.6   EM035704
     K04M02W  C2004 06 20.38201 20 55 25.72 -01 00 08.0          17.6   EM035704
     K04M02W  C2004 06 21.00219 20 45 36.06 -04 01 37.9          16.3 V EM035A50
     K04M02W  C2004 06 21.00249 20 45 35.75 -04 01 43.3          16.3 V EM035A50
     K04M02W  C2004 06 21.00280 20 45 35.46 -04 01 48.8          16.3 V EM035A50
     K04M02W  C2004 06 21.00311 20 45 35.17 -04 01 54.2          16.2 V EM035A50
     K04M02W  C2004 06 21.00343 20 45 34.86 -04 01 59.6          16.0 V EM035A50
     K04M02W  C2004 06 21.04203 20 44 59.06 -04 13 12.2          16.5 R EM035J95
     K04M02W  C2004 06 21.04436 20 44 56.81 -04 13 52.8          16.4 R EM035J95
     K04M02W  C2004 06 21.04630 20 44 54.95 -04 14 26.5          16.5 R EM035J95
     K04M02W  C2004 06 21.31571 20 40 41.22 -05 31 53.7          15.9 R EM035854
     K04M02W  C2004 06 21.31769 20 40 39.32 -05 32 28.1          15.9 R EM035854
     K04M02W  C2004 06 21.31835 20 40 38.68 -05 32 39.4          16.0 R EM035854
     K04M02W  C2004 06 21.31933 20 40 37.70 -05 32 58.7          15.8 R EM035699
     K04M02W  C2004 06 21.31979 20 40 37.28 -05 33 07.1                 EM035699
     K04M02W  C2004 06 21.32026 20 40 36.85 -05 33 14.7                 EM035699
     K04M02W  C2004 06 21.32071 20 40 36.42 -05 33 23.0                 EM035699
     K04M02W  C2004 06 21.32172 20 40 35.42 -05 33 40.1          15.9 R EM035699
     K04M02W  C2004 06 21.32219 20 40 34.97 -05 33 48.4                 EM035699
     K04M02W  C2004 06 21.32265 20 40 34.55 -05 33 55.8                 EM035699
     K04M02W  C2004 06 21.32313 20 40 34.05 -05 34 04.5                 EM035699
     K04M02W  C2004 06 21.32986 20 40 25.24 -05 36 06.2                 EM035785
     K04M02W  C2004 06 21.34405 20 40 11.61 -05 40 09.6          16.1 R EM035785
     K04M02W  C2004 06 21.34682 20 40 08.75 -05 40 58.5          15.7 R EM035785
     K04M02W  C2004 06 21.34972 20 40 05.91 -05 41 48.3          15.8 R EM035785
     K04M02W  C2004 06 21.36410 20 39 54.21 -05 45 49.0          16.6   EM035704
     K04M02W  C2004 06 21.36715 20 39 51.23 -05 46 41.2          16.1   EM035704
     K04M02W  C2004 06 21.37373 20 39 44.85 -05 48 34.9          17.0   EM035704
     K04M02W  C2004 06 21.37702 20 39 41.66 -05 49 31.2          16.6   EM035704
     K04M02W  C2004 06 21.38349 20 39 35.42 -05 51 22.7          16.4   EM035704
     K04M02W  C2004 06 21.38689 20 39 32.10 -05 52 20.8          16.4   EM035704
     K04M02W  C2004 06 21.39305 20 39 26.52 -05 54 07.9          19.1   EM035704
     K04M02W  C2004 06 21.39692 20 39 22.41 -05 55 13.1          16.7   EM035704
     K04M02W  C2004 06 21.40260 20 39 16.93 -05 56 51.0          16.7   EM035704
     K04M02W  C2004 06 21.40686 20 39 12.76 -05 58 04.2          16.3   EM035704

Observer details:
699 Lowell Observatory-LONEOS.  Observer B. A. Skiff.  0.59-m LONEOS Schmidt
    + CCD.
704 Lincoln Laboratory ETS, New Mexico.  Observers M. Blythe, F. Shelly,
    M. Bezpalko, R. Huber, L. Manguso, D. Torres, R. Kracke, M. McCleary,
    H. Stange, A. Milner.  Measurers J. Stuart, R. Sayer, J. Evans, J. Kommers.
    1.0-m f/2.15 reflector + CCD.
785 Fitz-Randolph Observatory, Princeton.  Observer J. Maffei.  0.91-m f/13.6
    Cassegrain + CCD.
854 Sabino Canyon Observatory, Tucson.  Observer J. E. McGaha.  0.356-m f/10.0
    Schmidt-Cassegrain + CCD.
A50 Andrushivka Astronomical Observatory.  Observer V. Lokot.  0.6-m reflector
    + CCD.
J95 Great Shefford.  Observer P. Birtwhistle.  0.30-m f/6.3 Schmidt-Cassegrain
    + CCD.

Orbital elements:
2004 MW2
Epoch 2004 June 4.0 TT = JDT 2453160.5                  MPC
M  37.22505              (2000.0)            P               Q
n   0.81000582     Peri.   50.00420     -0.69436990     -0.44143711
a   1.1397527      Node    96.20650     +0.34968375     -0.89721871
e   0.6356512      Incl.   34.86657     +0.62894493     +0.01148299
P   1.22           H   19.0           G   0.15
From 36 observations 2004 June 20-21.

Ephemeris:
2004 MW2                 a,e,i = 1.14, 0.64, 35                  q = 0.4153
Date    TT    R. A. (2000) Decl.     Delta      r     Elong.  Phase     V
2004 06 14    22 32.16   +26 15.0    0.144    1.031    91.9    80.1    17.7
2004 06 24    19 59.64   -17 22.3    0.133    1.138   154.1    22.9    16.0
2004 07 04    18 08.31   -39 22.8    0.230    1.236   160.9    15.6    17.1
2004 07 14    17 17.03   -44 38.4    0.362    1.325   143.7    27.0    18.6
2004 07 24    16 56.70   -46 04.1    0.507    1.406   132.0    32.5    19.6
2004 08 03    16 51.67   -46 28.2    0.660    1.480   122.8    35.2    20.4
2004 08 13    16 55.04   -46 31.8    0.817    1.546   114.9    36.5    21.0
2004 08 23    17 03.70   -46 27.3    0.977    1.605   107.7    36.9    21.5
2004 09 02    17 15.93   -46 18.9    1.137    1.657   101.0    36.7    21.9

Kyle E. Smalley              (C) Copyright 2004 MPC           M.P.E.C. 2004-M35

Read MPEC 2004-M34 Read MPEC 2004-M36


Our Web policy. Index to the CBAT/MPC/ICQ pages.


Valid HTML 4.01!